Vertical_Velocity
-1 2 2 2 2 -3 -1 2 -0 -1 -2 -11 -1 0 -0 -0 4 -2 3 -3 1 -1 -0 -0 2 2 -2 -2 2 -2 1 3 -3 0 2 4 6 -1
2 3 2 3 2 -4 -0 -2 0 -3 -4 2 1 2 -1 3 1 -1 1 -2 1 -2 -1 0 1 1 1 -1 1 -1 3 2 -2 0 0 6 20 -0
-1 -3 1 -2 -1 -1 -1 -2 -1 -2 -3 -7 1 2 1 -0 -1 -1 -1 -2 0 -1 0 -1 1 -0 1 -0 -0 -1 -0 5 -2 3 3 -1 -3 3
-1 -2 -1 -3 -2 0 -1 -0 2 -1 -4 1 1 1 1 -1 -2 -3 -3 -0 -2 -0 -1 -1 2 2 3 1 4 -1 -2 4 0 -1 -0 9 1 11
-2 2 -3 0 -2 -1 -3 4 -0 -0 0 2 -1 1 -0 -1 0 2 0 -2 0 -2 0 0 2 -0 1 0 3 3 5 11 5 4 1 -4 3 1
6 0 4 4 -2 -3 -3 -1 -0 1 0 0 -0 1 0 -1 1 1 0 -1 -0 -0 -1 -2 1 1 5 1 0 3 4 1 -5 -6 -2 2 11 5
2 -1 -3 0 -1 2 -3 -0 1 -1 2 -0 0 0 -1 -2 -0 -0 0 -1 -0 0 -2 -0 1 0 2 3 1 3 1 3 2 1 0 0 -0 -2
-1 -2 -6 2 1 1 -1 2 1 0 0 0 1 1 -1 0 0 -0 -1 1 -2 -1 0 1 -0 -0 1 -1 1 1 1 1 -1 1 1 0 0 0
-4 -4 -1 -2 6 1 -1 -1 0 0 0 0 1 -0 -0 -3 -0 0 0 -0 1 -0 1 1 1 -1 -0 3 -0 1 1 1 1 -1 0 -1 0 1
-2 -0 -2 -1 2 0 1 -1 1 -2 -1 1 0 -0 1 0 -0 -0 1 0 0 0 1 -0 -2 3 -2 -1 0 -0 2 2 -0 -0 1 1 1 1
1 -2 -3 -1 2 1 -2 -0 -1 -1 0 -1 -0 -0 -0 0 -0 -1 -0 -1 0 0 -0 2 -1 1 -1 0 -1 0 1 1 -1 1 -1 0 0 -1
5 -2 -3 0 1 -1 -1 -1 0 -0 -1 -1 0 0 -1 -1 -1 -1 0 0 -0 2 1 -0 -1 1 -2 -2 1 0 1 -0 0 0 1 1 -0 0
0 -3 -3 -1 2 0 -1 1 0 -0 -1 -0 0 0 -1 -1 -0 -1 1 0 0 0 0 1 0 0 -0 -1 -2 1 1 -0 -0 -0 1 -0 -1 1
-1 -4 -1 -2 -0 -0 -2 0 1 1 -1 -1 -1 -2 1 -1 -1 0 1 0 1 -0 1 1 -1 -1 -2 -3 2 3 1 1 1 1 1 -1 -1 -0
-3 -0 -1 -0 -0 -0 -1 -0 0 -0 -0 -0 -0 -2 1 -1 1 1 1 1 0 -0 2 -0 0 1 1 -3 0 -3 -3 -2 -0 0 -1 -1 0 -0
-2 -0 -1 0 0 0 -0 -0 1 0 -0 0 -0 -1 0 -1 -1 0 1 0 0 -1 -1 1 -0 -1 -1 -3 0 -3 -5 -4 -3 -0 -1 -1 -1 -1
-1 -1 -1 -1 -1 -1 -0 0 1 0 -0 0 0 -1 -0 -0 -0 -1 1 -5 -4 -1 2 2 1 -0 0 1 1 1 1 1 -1 -0 -1 -1 -1 -2
-0 -0 -2 -1 -1 -0 -0 0 -0 -1 -1 0 -0 -0 -0 -0 1 2 0 2 -0 -0 1 1 -0 -0 -0 0 0 -0 1 -0 -1 -0 -1 0 -1 -3
1 -0 -1 0 0 0 -1 -0 -1 -1 0 0 -1 1 1 1 -3 -0 -1 -1 3 -0 -2 -1 1 0 1 3 0 -2 0 -1 -1 0 -1 -0 -0 -6
1 -1 -0 -0 -0 0 0 0 -0 -0 0 -1 0 -1 -1 -0 -1 1 1 2 1 0 -1 -0 1 7 1 -5 -4 3 -1 2 -0 -3 -0 -2 1 -4
-1 1 -1 -1 -1 0 1 1 1 1 1 2 2 1 -0 -2 -0 -1 -1 -1 -2 -0 1 1 2 -6 -3 0 -0 4 1 -0 -1 -2 -2 -2 -0 1
-0 -2 0 1 -1 -0 -1 0 1 1 1 0 0 0 0 -1 1 0 -0 -0 0 1 3 1 -1 -1 -4 -2 4 1 -1 1 -4 -3 -1 -0 0 -3
0 0 -1 -1 -0 0 0 -0 -1 0 0 0 0 1 1 0 0 0 1 1 1 0 1 1 -3 -1 -1 -1 1 3 1 0 2 -7 0 1 -1 -1
Height
3128 3128 3128 3127 3127 3126 3125 3122 3119 3116 3113 3107 3110 3108 3106 3104 3102 3099 3096 3095 3093 3090 3088 3087 3086 3086 3084 3084 3084 3085 3086 3088 3090 3093 3097 3100 3104 3108
3121 3121 3120 3119 3119 3118 3116 3114 3112 3109 3105 3102 3101 3099 3097 3095 3094 3091 3089 3087 3085 3084 3082 3080 3080 3081 3079 3079 3080 3081 3082 3084 3087 3090 3094 3098 3100 3103
3113 3113 3112 3112 3110 3109 3108 3105 3103 3101 3098 3094 3092 3090 3088 3087 3085 3083 3081 3080 3078 3077 3075 3075 3075 3075 3075 3077 3077 3078 3080 3082 3085 3087 3090 3094 3098 3101
3107 3104 3104 3103 3102 3100 3099 3097 3096 3093 3090 3087 3085 3083 3080 3078 3077 3075 3074 3072 3071 3070 3070 3070 3071 3070 3071 3072 3074 3076 3078 3080 3083 3085 3088 3092 3095 3098
3099 3096 3096 3094 3093 3093 3092 3090 3088 3085 3082 3079 3077 3076 3073 3071 3069 3068 3067 3066 3065 3064 3064 3064 3066 3065 3067 3070 3072 3074 3077 3079 3081 3083 3086 3089 3092 3094
3092 3090 3089 3087 3086 3085 3084 3082 3080 3077 3075 3072 3070 3068 3066 3064 3063 3062 3061 3060 3060 3059 3060 3060 3061 3062 3064 3066 3069 3072 3074 3077 3078 3080 3082 3084 3087 3090
3085 3084 3084 3082 3081 3078 3076 3075 3072 3070 3067 3064 3062 3060 3059 3058 3057 3056 3055 3054 3054 3054 3054 3056 3057 3058 3061 3063 3065 3067 3069 3071 3073 3076 3078 3080 3083 3085
3079 3078 3078 3076 3074 3071 3070 3067 3064 3061 3060 3057 3055 3053 3052 3051 3050 3050 3049 3049 3049 3049 3050 3052 3054 3056 3057 3059 3061 3063 3064 3066 3068 3071 3073 3075 3078 3080
3071 3071 3070 3068 3066 3063 3061 3059 3057 3054 3052 3050 3048 3046 3045 3045 3044 3044 3044 3044 3045 3046 3047 3049 3051 3053 3054 3055 3056 3058 3059 3061 3064 3066 3068 3070 3072 3074
3064 3062 3062 3060 3058 3055 3053 3051 3048 3046 3045 3043 3041 3040 3039 3039 3039 3039 3039 3040 3041 3043 3045 3046 3048 3049 3050 3052 3053 3054 3055 3057 3059 3061 3063 3065 3068 3069
3056 3055 3053 3052 3050 3047 3045 3043 3041 3039 3038 3036 3035 3034 3033 3033 3033 3034 3035 3036 3038 3040 3042 3043 3045 3046 3048 3048 3049 3051 3052 3054 3056 3057 3059 3061 3063 3065
3049 3046 3045 3045 3042 3040 3038 3036 3034 3033 3031 3030 3030 3029 3029 3029 3029 3030 3032 3033 3034 3035 3038 3041 3042 3042 3044 3046 3047 3047 3048 3050 3051 3053 3055 3056 3058 3059
3041 3039 3038 3037 3034 3032 3030 3030 3029 3027 3026 3025 3025 3025 3025 3025 3026 3027 3029 3030 3032 3033 3035 3037 3038 3038 3040 3042 3043 3044 3045 3046 3048 3049 3050 3051 3052 3054
3034 3033 3030 3029 3027 3026 3023 3022 3022 3021 3021 3020 3021 3021 3021 3022 3023 3025 3026 3028 3029 3031 3032 3034 3034 3035 3037 3038 3039 3040 3041 3042 3043 3044 3045 3046 3047 3049
3028 3026 3023 3022 3020 3018 3017 3016 3016 3016 3016 3016 3016 3017 3019 3020 3020 3021 3023 3025 3026 3028 3028 3030 3031 3032 3033 3034 3035 3036 3037 3038 3039 3040 3040 3041 3042 3042
3020 3019 3017 3015 3014 3012 3010 3010 3010 3010 3011 3011 3012 3013 3014 3016 3017 3019 3020 3021 3023 3024 3025 3026 3027 3028 3029 3030 3031 3031 3032 3034 3035 3035 3035 3035 3035 3035
3013 3011 3010 3009 3007 3006 3005 3005 3005 3005 3005 3006 3007 3008 3010 3011 3013 3014 3016 3017 3017 3019 3020 3021 3022 3023 3024 3025 3025 3026 3027 3028 3028 3029 3029 3029 3029 3028
3006 3004 3004 3003 3001 3001 3001 3000 3000 3000 3000 3001 3002 3004 3004 3005 3007 3009 3011 3012 3013 3013 3014 3015 3016 3017 3018 3019 3019 3019 3020 3021 3021 3022 3022 3022 3021 3021
2999 2998 2998 2997 2997 2997 2996 2996 2995 2996 2996 2997 2998 2999 3000 3001 3002 3004 3005 3006 3006 3006 3007 3008 3009 3010 3010 3011 3012 3012 3012 3013 3014 3014 3014 3014 3014 3014
2993 2992 2992 2992 2992 2991 2991 2991 2991 2991 2992 2992 2993 2994 2994 2995 2996 2997 2998 2998 2998 2998 2999 3001 3002 3002 3000 3001 3002 3005 3005 3005 3005 3005 3005 3005 3005 3005
2988 2987 2986 2986 2985 2985 2985 2985 2985 2985 2985 2986 2987 2987 2987 2988 2989 2989 2989 2990 2990 2991 2992 2992 2992 2990 2991 2993 2995 2998 2996 2995 2994 2995 2995 2995 2995 2995
2980 2980 2979 2979 2978 2978 2977 2977 2978 2978 2978 2978 2978 2979 2979 2979 2980 2980 2980 2980 2981 2981 2982 2982 2982 2980 2981 2982 2985 2986 2986 2985 2983 2983 2983 2984 2984 2984
2972 2972 2972 2971 2970 2970 2970 2970 2970 2970 2970 2970 2970 2969 2969 2969 2969 2969 2970 2970 2969 2970 2970 2970 2969 2970 2970 2970 2970 2971 2972 2972 2972 2970 2972 2972 2972 2972